Volver al catálogo

FENGYUN 1C DEB

LostPO
NORAD 31886·DEBRIS·🇨🇳 China

Lanzado May 10, 1999 desde Taiyuan Satellite Launch Center

Loading…

Próximos Pases (próximas 24 horas)

TLE

ObsoletoSource: Space-Track

Época: Sep 2, 2022, 07:05 UTC

1 31886U 99025CKM 22245.29577961  .00002364  00000-0  10815-2 0  9994
2 31886  99.2104  86.7984 0059355  96.4270 264.3669 14.21536428783011

Sigue FENGYUN 1C DEB en tiempo real con AllMySat

Download on the App Store